AKDT,Max TemperatureF,Mean TemperatureF,Min TemperatureF,Max Dew PointF,MeanDew PointF,Min DewpointF,Max Humidity, Mean Humidity, Min Humidity, Max Sea Level PressureIn, Mean Sea Level PressureIn, Min Sea Level PressureIn, Max VisibilityMiles, Mean VisibilityMiles, Min VisibilityMiles, Max Wind SpeedMPH, Mean Wind SpeedMPH, Max Gust SpeedMPH,PrecipitationIn, CloudCover, Events, WindDirDegrees
2011-10-1,53,48,42,41,38,34,87,69,47,29.99,29.96,29.91,10,10,10,12,6,17,0.00,5,,129
2011-10-2,53,40,28,39,34,27,93,81,54,29.98,29.93,29.86,10,10,2,7,2,,0.00,2,,309
2011-10-3,50,40,30,39,33,27,93,81,62,29.81,29.63,29.43,10,10,2,4,0,,0.00,1,,329
2011-10-4,46,38,30,43,36,28,93,86,81,29.53,29.38,29.28,10,10,8,8,2,,0.00,6,,342
2011-10-5,51,45,39,45,42,37,93,86,76,29.75,29.68,29.60,10,9,1,6,2,,0.00,8,,327
2011-10-6,50,47,44,45,43,41,93,85,71,29.77,29.74,29.72,10,10,7,16,6,24,0.00,8,,130
2011-10-7,51,48,46,45,42,39,87,82,76,29.99,29.91,29.81,10,10,9,16,10,21,0.00,8,,129
2011-10-8,46,44,42,43,41,39,93,87,81,29.95,29.70,29.44,10,10,7,12,4,,0.00,8,,335
2011-10-9,50,46,42,43,41,39,93,84,66,29.67,29.60,29.45,10,10,7,12,4,,0.00,8,,123
2011-10-10,48,45,42,43,40,37,87,81,71,29.63,29.44,29.29,10,10,10,10,5,,0.00,5,,340
2011-10-11,50,41,32,45,37,28,93,83,62,29.45,29.35,29.28,10,10,10,9,3,,0.00,6,,342
2011-10-12,44,43,42,43,41,39,93,88,81,29.86,29.66,29.49,10,8,2,12,6,,0.00,8,,335
2011-10-13,48,45,42,43,41,37,93,85,66,30.09,30.04,29.96,10,10,7,12,2,,0.00,6,,144
2011-10-14,46,42,37,39,37,36,93,81,71,30.11,30.05,29.98,10,10,10,13,3,,0.00,8,,129
2011-10-15,48,46,44,37,37,36,76,71,62,29.95,29.88,29.84,10,10,10,21,15,31,0.00,8,,139
2011-10-16,50,46,41,41,39,37,87,77,66,29.91,29.89,29.86,10,10,9,10,7,,0.00,7,,130
2011-10-17,46,42,37,43,39,34,93,90,81,29.93,29.89,29.75,10,9,1,7,2,,0.00,8,,316
2011-10-18,50,46,41,43,41,37,93,83,76,29.81,29.67,29.54,10,10,7,18,7,26,0.00,7,,149
2011-10-19,44,40,35,39,37,34,93,85,76,29.90,29.83,29.80,10,10,4,12,3,18,0.00,6,,117
2011-10-20,46,44,41,39,37,36,87,78,71,29.94,29.92,29.89,10,10,10,14,8,21,0.00,7,,136
2011-10-21,44,40,37,36,35,32,93,84,66,29.80,29.54,29.44,10,10,8,10,5,,0.00,7,,338
2011-10-22,48,44,39,39,39,37,93,80,71,29.58,29.52,29.47,10,10,10,20,10,26,0.00,8,,127
2011-10-23,46,45,44,43,39,37,93,80,71,29.81,29.71,29.64,10,10,7,13,9,17,0.00,8,,138
2011-10-24,46,44,42,41,40,39,87,83,76,30.15,30.02,29.89,10,9,4,12,5,,0.00,8,,121
2011-10-25,48,46,44,39,39,37,81,76,66,30.18,29.93,29.47,10,9,5,28,15,38,0.00,8,,138
2011-10-26,44,42,39,39,36,34,87,80,66,29.77,29.53,29.41,10,9,5,17,11,24,0.00,8,,154
2011-10-27,46,44,42,37,37,36,81,77,66,29.88,29.81,29.60,10,10,7,18,10,29,0.00,8,,138
2011-10-28,46,42,39,39,37,36,93,82,71,29.42,29.21,29.06,10,10,6,12,6,,0.00,8,,16
2011-10-29,46,44,42,39,38,36,87,77,66,29.50,29.36,29.26,10,10,8,25,12,39,0.00,8,,137
2011-10-30,44,40,35,37,36,32,93,80,71,29.57,29.38,29.32,10,9,2,28,12,36,0.00,8,,130
2011-10-31,44,40,37,39,34,30,87,77,66,30.09,29.98,29.78,10,10,6,20,8,26,0.00,6,,164